Station: Hindmarsh Island  

  Atmospheric Gas Attenuation - ITU Rec 676-11   ----------------- dB/100km -----------------
Date Time Temp RH % AH g/m3 Dew Point Wind Direction Speed kph Gust kph Barometer mB Rainfall Since 9am 24GHz 47GHz 76GHz 122GHz 134GHz 241GHz
05/09 23:20 12.6 85 9.4 10.1 22 35 1020.3 1 21.4 27.9 44.1 115.7 111.5 384.0
05/09 23:10 12.8 81 9.07 9.6 22 44 1020.2 1 20.6 27.2 42.6 111.7 106.6 367.1
05/09 23:00 12.6 81 8.96 9.4 20 28 1020.1 1 20.4 27.1 42.2 110.8 105.4 362.7
05/09 22:50 12.6 81 8.96 9.4 20 30 1020 1 20.4 27.1 42.2 110.7 105.4 362.7
05/09 22:40 12.8 80 8.96 9.4 24 32 1019.8 1 20.4 27.0 42.1 110.4 105.1 361.7
05/09 22:30 12.8 81 9.07 9.6 20 30 1019.9 1 20.6 27.2 42.5 111.7 106.6 367.0
05/09 22:20 12.7 82 9.13 9.7 19 26 1019.8 1 20.8 27.3 42.8 112.5 107.6 370.3
05/09 22:10 12.8 82 9.19 9.8 20 30 1019.8 1 20.9 27.4 43.0 113.0 108.2 372.7
05/09 22:00 12.6 81 8.96 9.4 20 28 1019.7 1 20.4 27.1 42.2 110.7 105.4 362.6
05/09 21:50 12.7 81 9.02 9.5 24 35 1019.6 1 20.5 27.2 42.4 111.2 106.0 365.0
05/09 21:40 12.8 81 9.07 9.6 24 35 1019.4 1 20.6 27.2 42.5 111.6 106.6 366.9
05/09 21:30 12.7 81 9.02 9.5 24 35 1019.3 1 20.5 27.1 42.4 111.2 106.0 364.9
05/09 21:20 12.9 82 9.24 9.9 20 30 1019.3 1 21.0 27.5 43.2 113.3 108.7 374.5
05/09 21:10 12.8 82 9.19 9.8 22 32 1019.2 1 20.9 27.4 43.0 112.9 108.2 372.6
05/09 21:00 12.8 82 9.19 9.8 20 30 1019.1 1 20.9 27.4 43.0 112.9 108.2 372.5
05/09 20:50 12.8 82 9.19 9.8 20 32 1019 1 20.9 27.4 43.0 112.9 108.2 372.5
05/09 20:40 12.8 82 9.19 9.8 20 26 1019 1 20.9 27.4 43.0 112.9 108.2 372.5
05/09 20:30 12.9 82 9.24 9.9 22 32 1018.8 1 21.0 27.4 43.1 113.3 108.7 374.4
05/09 20:20 13 82 9.3 10 22 28 1018.7 1 21.1 27.5 43.3 113.8 109.4 376.7
05/09 20:10 12.9 82 9.24 9.9 22 37 1018.4 1 21.0 27.4 43.1 113.3 108.7 374.2
05/09 20:00 12.9 83 9.36 10.1 19 28 1018.3 1 21.3 27.6 43.6 114.6 110.3 380.0
05/09 19:50 12.8 84 9.41 10.2 20 28 1018.1 1 21.4 27.7 43.9 115.3 111.1 382.8
05/09 19:40 12.8 85 9.52 10.3 19 26 1017.9 1 21.6 27.9 44.3 116.5 112.6 388.1
05/09 19:30 12.8 86 9.63 10.5 17 24 1017.7 1 21.8 28.1 44.8 117.7 114.1 393.4
05/09 19:20 12.8 86 9.63 10.5 19 24 1017.4 1 21.8 28.1 44.8 117.7 114.1 393.3
05/09 19:10 12.7 86 9.57 10.4 20 26 1017.3 1 21.7 28.0 44.6 117.1 113.4 390.9
05/09 19:00 12.8 87 9.75 10.7 20 28 1017.2 1 22.1 28.3 45.3 119.0 115.8 399.1
05/09 18:50 13 85 9.64 10.5 19 28 1017.2 1 21.9 28.0 44.7 117.5 113.9 392.7
05/09 18:40 13 83 9.41 10.2 19 28 1016.7 0.8 21.4 27.6 43.7 114.8 110.7 381.4
05/09 18:30 13.2 82 9.42 10.2 19 28 1016.6 0.8 21.4 27.6 43.6 114.6 110.6 380.9
05/09 18:20 13.5 80 9.36 10.1 22 35 1016.4 0.8 21.2 27.4 43.2 113.5 109.3 376.5
05/09 18:10 13.6 79 9.3 10 26 39 1016.2 0.8 21.1 27.2 42.9 112.7 108.3 373.1
05/09 18:00 13.5 79 9.24 9.9 24 32 1015.8 0.8 21.0 27.1 42.7 112.1 107.6 370.6
05/09 17:50 13.8 77 9.17 9.8 28 46 1015.5 0.8 20.8 26.9 42.2 110.9 106.2 365.8
05/09 17:40 13.8 78 9.29 10 28 37 1015.3 0.8 21.1 27.1 42.7 112.2 107.8 371.4
05/09 17:30 13.7 80 9.47 10.3 30 39 1015.1 0.8 21.5 27.4 43.5 114.3 110.4 380.4
05/09 17:20 13.9 78 9.35 10.1 39 54 1015 0.8 21.2 27.2 42.9 112.6 108.5 373.7
05/09 17:10 14.2 73 8.91 9.4 39 54 1014.7 0.8 20.2 26.3 40.9 107.4 102.1 351.5
05/09 17:00 14.4 71 8.78 9.2 39 54 1014.6 0.8 19.9 26.1 40.3 105.7 100.1 344.6
05/09 16:50 14.6 69 8.63 9 33 46 1014.5 0.8 19.6 25.8 39.6 103.8 97.9 336.8
05/09 16:40 14.7 69 8.69 9.1 39 56 1014.4 0.8 19.7 25.8 39.8 104.3 98.5 339.1
05/09 16:30 14.8 66 8.36 8.5 43 59 1014.1 0.8 19.0 25.3 38.4 100.7 94.1 323.5
05/09 16:20 15.3 66 8.62 9 41 57 1013.9 0.8 19.6 25.5 39.2 102.8 96.8 333.2
05/09 16:10 15.1 65 8.39 8.6 44 63 1013.6 0.8 19.1 25.2 38.3 100.6 94.1 323.5
05/09 16:00 15.6 67 8.91 9.5 39 57 1013.6 0.8 20.2 25.9 40.1 105.4 100.2 345.0
05/09 15:50 15.2 68 8.83 9.3 44 59 1013.5 0.8 20.0 25.9 40.0 105.1 99.7 343.1
05/09 15:40 15.4 65 8.54 8.9 46 65 1013.4 0.8 19.4 25.3 38.8 101.7 95.6 329.0
05/09 15:30 15.3 63 8.23 8.3 44 63 1013.2 0.8 18.7 24.9 37.6 98.6 91.8 315.4
05/09 15:20 15.7 62 8.3 8.4 44 59 1013 0.8 18.9 24.9 37.7 98.8 92.2 316.9
05/09 15:10 15.5 65 8.59 9 43 59 1013 0.8 19.5 25.4 38.9 102.1 96.1 330.8
05/09 15:00 15.7 65 8.7 9.1 48 65 1012.8 0.8 19.7 25.5 39.2 103.0 97.3 334.8
05/09 14:50 15.6 64 8.51 8.8 39 57 1012.6 0.8 19.3 25.2 38.5 101.1 94.9 326.6
05/09 14:40 14.6 68 8.51 8.8 50 69 1012.7 0.8 19.4 25.5 39.0 102.4 96.2 330.8
05/09 14:30 15.8 60 8.08 8.1 48 67 1012.4 0.8 18.4 24.5 36.8 96.4 89.2 306.6
05/09 14:20 16 58 7.9 7.7 48 69 1012.3 0.8 18.0 24.1 36.0 94.3 86.7 297.9
05/09 14:10 16.1 59 8.09 8.1 50 65 1012.2 0.8 18.4 24.4 36.7 96.1 89.0 305.9
05/09 14:00 16 61 8.31 8.5 50 69 1011.9 0.8 18.9 24.8 37.5 98.4 91.9 315.9
05/09 13:50 16.1 62 8.5 8.8 46 63 1011.7 0.8 19.3 25.0 38.2 100.3 94.1 323.9
05/09 13:40 15.4 57 7.49 6.9 46 69 1011.8 0.8 17.2 23.7 34.7 90.8 82.2 282.1
05/09 13:30 15.7 61 8.16 8.2 50 72 1011.5 0.8 18.6 24.6 37.1 97.2 90.3 310.3
05/09 13:20 16.3 61 8.46 8.8 50 67 1011.6 0.8 19.2 24.9 38.0 99.6 93.4 321.3
05/09 13:10 16.2 60 8.27 8.4 41 61 1011.7 0.8 18.8 24.6 37.3 97.8 91.1 313.3
05/09 13:00 15.9 59 7.99 7.9 48 69 1011.6 0.8 18.2 24.3 36.3 95.3 87.9 302.1
05/09 12:50 15.9 63 8.53 8.9 44 61 1011.5 0.8 19.3 25.1 38.4 100.8 94.7 326.0
05/09 12:40 15.3 62 8.1 8.1 48 70 1011.4 0.8 18.5 24.6 37.0 97.1 90.0 309.2
05/09 12:30 15.5 60 7.93 7.8 50 72 1011.3 0.8 18.1 24.3 36.3 95.1 87.6 300.9
05/09 12:20 15.7 62 8.3 8.4 43 63 1011.1 0.8 18.9 24.8 37.6 98.6 92.0 316.4
05/09 12:10 15.5 64 8.46 8.7 43 61 1011.3 0.8 19.2 25.1 38.3 100.6 94.3 324.4
05/09 12:00 15.3 64 8.36 8.5 43 69 1011.4 0.8 19.0 25.0 38.0 99.8 93.3 320.8
05/09 11:50 15.2 62 8.05 8 44 69 1011.4 0.8 18.4 24.6 36.9 96.7 89.4 307.4
05/09 11:40 15.6 62 8.25 8.4 44 59 1011.2 0.8 18.8 24.8 37.5 98.3 91.5 314.6
05/09 11:30 15.8 59 7.94 7.8 41 59 1011.2 0.8 18.1 24.2 36.2 94.8 87.4 300.2
05/09 11:20 15.8 55 7.4 6.8 43 65 1011.1 0.8 16.9 23.4 34.1 89.4 80.7 276.7
05/09 11:10 15.6 60 7.98 7.9 44 59 1011 0.8 18.2 24.3 36.4 95.5 88.1 302.6
05/09 11:00 15.8 58 7.81 7.6 48 69 1010.9 0.8 17.8 24.0 35.7 93.5 85.7 294.4
05/09 10:50 15.7 56 7.49 7 48 65 1010.7 0.8 17.1 23.5 34.5 90.4 81.9 280.8
05/09 10:40 15.7 60 8.03 8 46 61 1010.4 0.8 18.3 24.4 36.5 95.8 88.6 304.3
05/09 10:30 15.6 63 8.38 8.6 43 63 1010.5 0.8 19.0 24.9 37.9 99.5 93.1 320.2
05/09 10:20 15.1 62 8 7.9 50 69 1010.4 0.8 18.3 24.5 36.7 96.2 88.9 305.3
05/09 10:10 15.1 61 7.87 7.6 44 63 1010.5 0.8 18.0 24.3 36.2 94.9 87.2 299.5
05/09 10:00 14.7 63 7.93 7.7 46 63 1010.3 0.8 18.1 24.5 36.6 96.0 88.4 303.7
05/09 09:50 15 68 8.72 9.1 43 57 1010.3 0.8 19.8 25.6 39.5 103.8 98.2 338.0
05/09 09:40 14.4 73 9.02 9.6 35 48 1010.3 0.8 20.5 26.3 41.0 107.8 102.9 354.5
05/09 09:30 13.7 78 9.24 9.9 33 46 1010.3 0.8 21.0 26.9 42.3 111.2 106.8 368.0
05/09 09:20 13 82 9.3 10 37 54 1010.2 0.8 21.1 27.2 42.9 112.9 108.6 374.2
05/09 09:10 12.3 89 9.67 10.5 46 80 1010.2 0.8 22.0 28.0 44.9 118.1 114.8 395.5
05/09 09:00 14.1 78 9.47 10.3 32 48 1010.3 0.2 21.4 27.1 43.0 113.2 109.4 377.0
05/09 08:50 14 78 9.41 10.2 28 39 1009.9 5.2 21.3 27.0 42.8 112.6 108.7 374.5
05/09 08:40 12.9 81 9.13 9.7 26 41 1009.6 5.2 20.8 26.9 42.3 111.1 106.4 366.4
05/09 08:30 12.5 82 9.02 9.5 32 46 1009.7 5.2 20.6 26.8 42.0 110.4 105.4 363.0
05/09 08:20 12.7 83 9.24 9.9 37 61 1009.8 5.2 21.0 27.1 42.8 112.6 108.2 372.6
05/09 08:10 13.9 81 9.71 10.7 28 39 1009.6 4.8 22.0 27.6 44.1 116.0 112.9 389.2
05/09 08:00 14.5 78 9.7 10.7 26 39 1009.3 4.4 21.9 27.3 43.7 115.0 111.8 385.6
05/09 07:50 14.1 78 9.47 10.3 28 39 1009.1 4.4 21.4 27.1 43.0 113.0 109.3 376.6
05/09 07:40 13.7 79 9.36 10.1 28 41 1009.1 4.4 21.2 27.0 42.8 112.4 108.4 373.3
05/09 07:30 14.2 74 9.04 9.6 28 43 1009.1 4.4 20.5 26.3 41.2 108.2 103.4 356.0
05/09 07:20 13.8 76 9.06 9.6 26 39 1008.9 4.4 20.6 26.5 41.5 109.0 104.2 358.7
05/09 07:10 13.7 75 8.88 9.4 30 39 1008.8 4.4 20.2 26.2 40.8 107.1 101.9 350.7
05/09 07:00 13.6 75 8.83 9.3 30 44 1008.8 4.4 20.1 26.2 40.6 106.7 101.3 348.8
05/09 06:50 13.7 76 9 9.6 26 37 1008.8 4.4 20.5 26.4 41.3 108.4 103.5 356.3

Last Refresh: 05-Sep-2026 23:28:47

Bureau of Meteorology